KC5EZZ-2 Weather Reports


time (UTC)temp
C
wind
direction
speed
KPH
gust
KPH
rain 1hr
cm
rain 24hr
cm
rain mn
cm
humidity
%
barometer
mb
20260510131712 25 211 24.1 24.1 0.00 0.00 0.00
20260510131210 25 160 20.9 24.1 0.00 0.00 0.00
20260510130710 25 142 22.5 27.4 0.00 0.00 0.00
20260510130210 25 188 24.1 29.0 0.00 0.00 0.00
20260510125708 24 195 20.9 17.7 0.00 0.00 0.00
20260510125208 24 198 24.1 19.3 0.00 0.00 0.00
20260510124708 24 180 19.3 32.2 0.00 0.00 0.00
20260510124206 23 170 20.9 22.5 0.00 0.00 0.00
20260510123706 23 172 16.1 14.5 0.00 0.00 0.00
20260510123207 23 191 19.3 16.1 0.00 0.00 0.00
20260510122704 23 163 17.7 12.9 0.00 0.00 0.00
20260510122205 23 187 17.7 24.1 0.00 0.00 0.00
20260510121705 22 184 19.3 16.1 0.00 0.00 0.00
20260510121202 22 188 14.5 19.3 0.00 0.00 0.00
20260510120703 21 166 19.3 14.5 0.00 0.00 0.00
20260510115701 21 163 11.3 16.1 0.00 0.00 0.00
20260510115201 21 166 14.5 22.5 0.00 0.00 0.00
20260510114700 21 183 14.5 17.7 0.00 0.00 0.00
20260510114302 21 179 19.3 17.7 0.00 0.00 0.00
20260510114158 21 179 19.3 17.7 0.00 0.00 0.00
20260510113658 21 166 16.1 22.5 0.00 0.00 0.00
20260510113159 21 155 14.5 12.9 0.00 0.00 0.00
20260510112655 21 191 16.1 16.1 0.00 0.00 0.00
20260510112155 21 159 12.9 11.3 0.00 0.00 0.00
20260510111656 21 186 14.5 16.1 0.00 0.00 0.00
20260510111153 21 146 19.3 14.5 0.00 0.00 0.00
20260510110654 21 163 12.9 12.9 0.00 0.00 0.00
20260510110154 21 158 12.9 12.9 0.00 0.00 0.00
20260510105731 21 186 12.9 16.1 0.00 0.00 0.00
20260510105651 21 186 12.9 16.1 0.00 0.00 0.00
20260510105233 21 146 11.3 9.7 0.00 0.00 0.00
20260510105152 21 146 11.3 9.7 0.00 0.00 0.00
20260510104652 21 163 11.3 9.7 0.00 0.00 0.00
20260510104150 21 176 11.3 9.7 0.00 0.00 0.00
20260510103650 21 166 11.3 14.5 0.00 0.00 0.00
20260510103150 21 165 14.5 12.9 0.00 0.00 0.00
20260510102648 21 155 14.5 14.5 0.00 0.00 0.00
20260510102148 21 181 12.9 11.3 0.00 0.00 0.00
20260510101649 20 176 12.9 14.5 0.00 0.00 0.00
20260510101146 20 139 9.7 9.7 0.00 0.00 0.00
20260510100647 20 197 9.7 11.3 0.00 0.00 0.00
20260510100146 19 169 8.0 6.4 0.00 0.00 0.00
20260510095644 19 177 6.4 6.4 0.00 0.00 0.00
20260510095144 19 177 0.0 0.0 0.00 0.00 0.00
20260510094645 19 177 0.0 0.0 0.00 0.00 0.00
20260510094142 19 177 0.0 0.0 0.00 0.00 0.00
20260510093643 19 177 0.0 0.0 0.00 0.00 0.00
20260510093143 19 177 0.0 0.0 0.00 0.00 0.00
20260510092641 19 177 0.0 0.0 0.00 0.00 0.00
20260510092140 19 177 0.0 0.0 0.00 0.00 0.00
20260510091640 19 177 0.0 0.0 0.00 0.00 0.00
20260510091138 19 104 0.0 0.0 0.00 0.00 0.00
20260510090638 19 104 0.0 0.0 0.00 0.00 0.00
20260510090139 19 104 0.0 0.0 0.00 0.00 0.00
20260510085636 19 104 0.0 0.0 0.00 0.00 0.00
20260510085136 20 104 3.2 0.0 0.00 0.00 0.00
20260510084637 19 121 3.2 3.2 0.00 0.00 0.00
20260510084134 20 139 4.8 3.2 0.00 0.00 0.00
20260510083635 20 180 4.8 3.2 0.00 0.00 0.00
20260510083135 20 194 8.0 6.4 0.00 0.00 0.00
20260510082633 20 156 8.0 8.0 0.00 0.00 0.00
20260510082133 20 160 6.4 8.0 0.00 0.00 0.00
20260510081634 20 162 9.7 8.0 0.00 0.00 0.00
20260510081131 20 172 6.4 6.4 0.00 0.00 0.00
20260510080632 19 172 8.0 0.0 0.00 0.00 0.00
20260510080132 19 163 0.0 0.0 0.00 0.00 0.00
20260510075630 20 163 0.0 0.0 0.00 0.00 0.00
20260510075130 20 163 0.0 0.0 0.00 0.00 0.00
20260510074631 20 159 4.8 0.0 0.00 0.00 0.00
20260510074128 20 176 4.8 3.2 0.00 0.00 0.00
20260510073628 20 176 6.4 4.8 0.00 0.00 0.00
20260510073129 20 190 0.0 0.0 0.00 0.00 0.00
20260510072626 20 190 0.0 0.0 0.00 0.00 0.00
20260510072127 20 190 0.0 0.0 0.00 0.00 0.00
20260510071627 20 190 0.0 0.0 0.00 0.00 0.00
20260510071125 20 184 4.8 4.8 0.00 0.00 0.00
20260510070625 20 165 3.2 3.2 0.00 0.00 0.00
20260510070411 20 186 4.8 3.2 0.00 0.00 0.00
20260510070126 20 186 4.8 3.2 0.00 0.00 0.00
20260510065623 20 163 3.2 3.2 0.00 0.00 0.00
20260510065124 20 170 4.8 6.4 0.00 0.00 0.00
20260510064624 20 166 4.8 6.4 0.00 0.00 0.00
20260510064121 20 179 3.2 4.8 0.00 0.00 0.00
20260510063622 20 158 3.2 3.2 0.00 0.00 0.00
20260510063122 21 173 1.6 3.2 0.00 0.00 0.00
20260510062620 21 158 3.2 3.2 0.00 0.00 0.00
20260510062120 21 150 3.2 3.2 0.00 0.00 0.00
20260510061621 21 173 4.8 4.8 0.00 0.00 0.00
20260510061118 21 158 4.8 4.8 0.00 0.00 0.00
20260510060619 21 149 3.2 3.2 0.00 0.00 0.00
20260510060119 21 150 3.2 3.2 0.00 0.00 0.00
20260510055617 21 160 4.8 3.2 0.00 0.00 0.00
20260510055117 21 167 6.4 6.4 0.00 0.00 0.00
20260510054617 22 187 8.0 6.4 0.00 0.00 0.00
20260510054114 22 225 9.7 11.3 0.00 0.00 0.00
20260510053614 22 180 8.0 11.3 0.00 0.00 0.00
20260510053115 22 197 8.0 6.4 0.00 0.00 0.00
20260510052611 22 187 6.4 6.4 0.00 0.00 0.00
20260510052112 22 193 4.8 6.4 0.00 0.00 0.00
20260510051612 21 177 4.8 4.8 0.00 0.00 0.00
20260510051110 22 169 3.2 3.2 0.00 0.00 0.00
20260510050610 22 193 4.8 4.8 0.00 0.00 0.00
20260510045608 22 198 8.0 4.8 0.00 0.00 0.00
20260510045108 22 177 8.0 6.4 0.00 0.00 0.00
20260510044609 22 166 8.0 6.4 0.00 0.00 0.00
20260510044106 22 181 8.0 9.7 0.00 0.00 0.00
20260510043607 22 169 8.0 8.0 0.00 0.00 0.00
20260510043107 22 186 6.4 8.0 0.00 0.00 0.00
20260510042604 22 180 6.4 6.4 0.00 0.00 0.00
20260510042105 22 174 4.8 8.0 0.00 0.00 0.00
20260510041605 23 176 4.8 4.8 0.00 0.00 0.00
20260510041103 23 177 6.4 8.0 0.00 0.00 0.00
20260510040709 23 172 6.4 6.4 0.00 0.00 0.00
20260510040603 23 172 6.4 6.4 0.00 0.00 0.00
20260510040103 23 176 6.4 4.8 0.00 0.00 0.00
20260510035601 23 176 4.8 6.4 0.00 0.00 0.00
20260510035101 24 170 4.8 4.8 0.00 0.00 0.00
20260510034602 24 173 4.8 3.2 0.00 0.00 0.00
20260510034059 24 158 4.8 3.2 0.00 0.00 0.00
20260510033559 24 165 6.4 4.8 0.00 0.00 0.00
20260510033100 24 190 6.4 6.4 0.00 0.00 0.00
20260510032557 25 174 6.4 6.4 0.00 0.00 0.00
20260510032058 25 195 6.4 4.8 0.00 0.00 0.00
20260510031558 25 183 6.4 6.4 0.00 0.00 0.00
20260510031056 25 174 6.4 4.8 0.00 0.00 0.00
20260510030556 26 160 3.2 6.4 0.00 0.00 0.00
20260510030056 26 146 4.8 4.8 0.00 0.00 0.00
20260510025554 26 165 6.4 4.8 0.00 0.00 0.00
20260510025054 26 181 8.0 8.0 0.00 0.00 0.00
20260510024555 26 166 6.4 4.8 0.00 0.00 0.00
20260510024052 27 150 6.4 6.4 0.00 0.00 0.00
20260510023553 27 138 8.0 6.4 0.00 0.00 0.00
20260510023053 27 135 8.0 8.0 0.00 0.00 0.00
20260510022550 27 149 8.0 6.4 0.00 0.00 0.00
20260510022051 27 129 9.7 11.3 0.00 0.00 0.00
20260510021549 27 146 9.7 8.0 0.00 0.00 0.00
20260510021047 28 145 9.7 8.0 0.00 0.00 0.00
20260510020547 28 162 11.3 8.0 0.00 0.00 0.00
20260510020047 28 152 8.0 8.0 0.00 0.00 0.00
20260510015545 28 131 9.7 9.7 0.00 0.00 0.00
20260510015045 28 129 11.3 8.0 0.00 0.00 0.00
20260510014545 28 135 9.7 8.0 0.00 0.00 0.00
20260510014043 28 121 6.4 11.3 0.00 0.00 0.00
20260510013543 29 117 8.0 9.7 0.00 0.00 0.00
20260510013043 29 131 9.7 6.4 0.00 0.00 0.00
20260510012541 29 120 6.4 6.4 0.00 0.00 0.00
20260510012041 30 117 4.8 6.4 0.00 0.00 0.00
20260510011541 30 118 8.0 12.9 0.00 0.00 0.00
20260510011039 30 113 9.7 11.3 0.00 0.00 0.00
20260510010539 30 115 8.0 8.0 0.00 0.00 0.00
20260510010039 30 115 9.7 9.7 0.00 0.00 0.00
20260510005537 30 103 6.4 8.0 0.00 0.00 0.00
20260510005037 30 101 11.3 9.7 0.00 0.00 0.00
20260510004646 31 142 12.9 12.9 0.00 0.00 0.00
20260510004537 31 142 12.9 12.9 0.00 0.00 0.00
20260510004035 31 158 11.3 11.3 0.00 0.00 0.00
20260510003535 31 138 9.7 8.0 0.00 0.00 0.00
20260510003036 31 128 12.9 11.3 0.00 0.00 0.00
20260510002533 31 152 12.9 9.7 0.00 0.00 0.00
20260510002033 31 121 12.9 14.5 0.00 0.00 0.00
20260510001534 31 111 12.9 12.9 0.00 0.00 0.00
20260510001031 32 139 12.9 14.5 0.00 0.00 0.00
20260510000532 32 118 11.3 9.7 0.00 0.00 0.00
20260510000032 32 139 12.9 11.3 0.00 0.00 0.00
20260509235529 32 145 12.9 9.7 0.00 0.00 0.00
20260509234530 32 125 17.7 11.3 0.00 0.00 0.00
20260509234027 32 129 11.3 11.3 0.00 0.00 0.00
20260509233527 31 91 16.1 16.1 0.00 0.00 0.00
20260509233027 32 122 12.9 9.7 0.00 0.00 0.00
20260509232524 32 97 14.5 19.3 0.00 0.00 0.00
20260509232025 33 93 12.9 17.7 0.00 0.00 0.00
20260509231525 32 167 8.0 12.9 0.00 0.00 0.00
20260509230522 33 173 9.7 9.7 0.00 0.00 0.00
20260509230022 33 166 8.0 8.0 0.00 0.00 0.00
20260509225520 32 184 9.7 8.0 0.00 0.00 0.00
20260509225020 32 145 12.9 9.7 0.00 0.00 0.00
20260509224520 32 98 9.7 11.3 0.00 0.00 0.00
20260509224018 32 80 11.3 9.7 0.00 0.00 0.00
20260509223518 32 98 14.5 11.3 0.00 0.00 0.00
20260509223018 32 117 12.9 17.7 0.00 0.00 0.00
20260509222516 34 150 16.1 12.9 0.00 0.00 0.00
20260509222016 33 187 11.3 11.3 0.00 0.00 0.00
20260509221516 33 145 14.5 12.9 0.00 0.00 0.00
20260509221014 33 118 11.3 17.7 0.00 0.00 0.00
20260509220514 33 165 12.9 11.3 0.00 0.00 0.00
20260509220014 33 197 16.1 9.7 0.00 0.00 0.00
20260509215511 33 194 11.3 11.3 0.00 0.00 0.00
20260509215012 33 190 11.3 11.3 0.00 0.00 0.00
20260509214512 33 172 16.1 9.7 0.00 0.00 0.00
20260509214010 33 156 12.9 9.7 0.00 0.00 0.00
20260509213510 33 159 9.7 4.8 0.00 0.00 0.00
20260509213010 34 160 11.3 16.1 0.00 0.00 0.00
20260509212508 33 125 8.0 14.5 0.00 0.00 0.00
20260509212008 33 217 14.5 16.1 0.00 0.00 0.00
20260509211508 33 181 8.0 3.2 0.00 0.00 0.00
20260509211006 33 226 11.3 3.2 0.00 0.00 0.00
20260509210506 33 181 12.9 6.4 0.00 0.00 0.00
20260509210006 33 177 14.5 14.5 0.00 0.00 0.00
20260509205504 33 177 16.1 12.9 0.00 0.00 0.00
20260509205004 33 155 12.9 14.5 0.00 0.00 0.00
20260509204504 33 136 12.9 9.7 0.00 0.00 0.00
20260509204001 32 146 14.5 17.7 0.00 0.00 0.00
20260509203502 33 172 16.1 12.9 0.00 0.00 0.00
20260509203002 33 152 14.5 12.9 0.00 0.00 0.00
20260509202459 32 153 12.9 16.1 0.00 0.00 0.00
20260509201959 33 204 12.9 12.9 0.00 0.00 0.00
20260509201500 33 153 9.7 6.4 0.00 0.00 0.00
20260509200957 32 136 11.3 11.3 0.00 0.00 0.00
20260509200458 32 122 12.9 14.5 0.00 0.00 0.00
20260509195958 32 176 16.1 14.5 0.00 0.00 0.00
20260509195455 32 132 14.5 12.9 0.00 0.00 0.00
20260509194956 32 121 14.5 12.9 0.00 0.00 0.00
20260509194456 32 188 11.3 12.9 0.00 0.00 0.00
20260509193953 32 166 16.1 27.4 0.00 0.00 0.00
20260509193454 32 176 9.7 20.9 0.00 0.00 0.00
20260509192953 32 163 17.7 16.1 0.00 0.00 0.00
20260509192450 32 158 16.1 16.1 0.00 0.00 0.00
20260509191951 31 135 14.5 14.5 0.00 0.00 0.00
20260509191451 32 201 17.7 16.1 0.00 0.00 0.00
20260509190948 31 160 12.9 17.7 0.00 0.00 0.00
20260509190449 31 132 14.5 16.1 0.00 0.00 0.00
20260509185949 31 153 14.5 19.3 0.00 0.00 0.00
20260509185446 31 156 14.5 16.1 0.00 0.00 0.00
20260509184947 31 127 12.9 17.7 0.00 0.00 0.00
20260509184447 31 107 16.1 16.1 0.00 0.00 0.00
20260509183944 31 212 14.5 12.9 0.00 0.00 0.00
20260509183445 31 149 11.3 17.7 0.00 0.00 0.00
20260509182945 31 167 14.5 17.7 0.00 0.00 0.00
20260509182442 31 173 16.1 16.1 0.00 0.00 0.00
20260509181943 31 156 14.5 19.3 0.00 0.00 0.00
20260509181443 31 141 14.5 17.7 0.00 0.00 0.00
20260509180940 31 194 12.9 11.3 0.00 0.00 0.00
20260509180441 30 205 14.5 14.5 0.00 0.00 0.00
20260509175941 31 118 16.1 14.5 0.00 0.00 0.00
20260509175438 31 108 12.9 14.5 0.00 0.00 0.00
20260509174939 30 87 12.9 3.2 0.00 0.00 0.00
20260509174439 30 145 12.9 11.3 0.00 0.00 0.00
20260509173936 30 177 9.7 9.7 0.00 0.00 0.00
20260509173437 30 153 6.4 6.4 0.00 0.00 0.00
20260509172937 28 146 8.0 11.3 0.00 0.00 0.00
20260509172434 29 132 6.4 9.7 0.00 0.00 0.00
20260509172104 29 194 8.0 3.2 0.00 0.00 0.00
20260509171935 29 194 8.0 3.2 0.00 0.00 0.00
20260509171435 29 163 12.9 11.3 0.00 0.00 0.00
20260509170933 28 132 6.4 11.3 0.00 0.00 0.00
20260509170433 28 194 8.0 4.8 0.00 0.00 0.00
20260509165933 28 239 9.7 8.0 0.00 0.00 0.00
20260509165431 27 136 9.7 9.7 0.00 0.00 0.00
20260509164931 27 162 11.3 6.4 0.00 0.00 0.00
20260509164432 27 176 8.0 11.3 0.00 0.00 0.00
20260509163929 27 191 9.7 9.7 0.00 0.00 0.00
20260509163430 26 229 8.0 9.7 0.00 0.00 0.00
20260509162929 27 128 6.4 14.5 0.00 0.00 0.00
20260509162426 26 190 6.4 11.3 0.00 0.00 0.00
20260509161927 26 240 9.7 8.0 0.00 0.00 0.00
20260509161427 26 135 9.7 16.1 0.00 0.00 0.00
20260509160925 26 174 9.7 8.0 0.00 0.00 0.00
20260509160425 25 153 9.7 12.9 0.00 0.00 0.00
20260509155926 25 183 12.9 12.9 0.00 0.00 0.00
20260509155424 24 148 9.7 14.5 0.00 0.00 0.00
20260509154924 23 115 11.3 8.0 0.00 0.00 0.00
20260509154424 23 143 14.5 14.5 0.00 0.00 0.00
20260509153922 23 121 11.3 8.0 0.00 0.00 0.00
20260509153422 24 107 14.5 12.9 0.00 0.00 0.00
20260509152923 23 131 12.9 9.7 0.00 0.00 0.00
20260509152544 23 125 12.9 12.9 0.00 0.00 0.00
20260509152420 23 125 12.9 12.9 0.00 0.00 0.00
20260509151921 23 143 4.8 11.3 0.00 0.00 0.00
20260509151421 23 107 9.7 12.9 0.00 0.00 0.00
20260509150919 23 96 9.7 16.1 0.00 0.00 0.00
20260509150418 23 163 9.7 6.4 0.00 0.00 0.00
20260509145919 22 135 9.7 4.8 0.00 0.00 0.00
20260509145416 23 122 6.4 8.0 0.00 0.00 0.00
20260509144916 22 177 8.0 4.8 0.00 0.00 0.00
20260509144417 21 210 1.6 3.2 0.00 0.00 0.00
20260509143915 21 359 1.6 1.6 0.00 0.00 0.00
20260509143000 19 277 8.0 4.8 0.00 0.00 0.00
20260509142916 19 277 8.0 4.8 0.00 0.00 0.00
20260509142413 18 294 9.7 11.3 0.00 0.00 0.00
20260509141914 18 305 6.4 4.8 0.00 0.00 0.00
20260509141414 18 326 8.0 6.4 0.00 0.00 0.00
20260509140912 18 298 8.0 6.4 0.00 0.00 0.00
20260509140412 18 304 8.0 9.7 0.00 0.00 0.00
20260509135912 18 297 9.7 9.7 0.00 0.00 0.00
20260509135410 18 340 6.4 8.0 0.00 0.00 0.00
20260509134910 17 314 8.0 6.4 0.00 0.00 0.00
20260509134411 17 321 4.8 8.0 0.00 0.00 0.00
20260509133908 17 318 6.4 4.8 0.00 0.00 0.00
20260509133409 17 312 4.8 4.8 0.00 0.00 0.00
20260509132909 17 322 8.0 6.4 0.00 0.00 0.00
20260509132407 17 336 8.0 6.4 0.00 0.00 0.00
20260509131907 17 340 4.8 6.4 0.00 0.00 0.00